New Castle, PA

11:47 PM EDT on July 27, 2017 (GMT -0400)
New Castle Municipal

Weather History for KUCP - May, 2014

Change the Weather History Date:

Monday, May 5, 2014

  Actual Average Record
Temperature  
Mean Temperature 44 °F -  
Max Temperature 57 °F 68 °F 90 °F (1949)
Min Temperature 32 °F 39 °F 26 °F (1961)
Degree Days  
Heating Degree Days 20    
Moisture  
Dew Point 35 °F    
Average Humidity 68    
Maximum Humidity 96    
Minimum Humidity 38    
Precipitation  
Precipitation 0.00 in - - ()
Sea Level Pressure  
Sea Level Pressure 30.07 in    
Wind  
Wind Speed 1 mph (NE)    
Max Wind Speed 9 mph    
Max Gust Speed -    
Visibility 10 miles    
Events Rain    
Averages and records for this station are not official NWS values.
T = Trace of Precipitation, MM = Missing Value Source: NWS Daily Summary

Daily Weather History Graph

Daily Weather History Graph

Search for Another Location

Airport or City:

Trip Planner

Search our weather history database for the weather conditions in past years. The results will help you decide how hot, cold, wet, or windy it might be!

Date:

Astronomy

May. 05, 2014 Rise Set
Actual Time 6:14 AM EDT 8:22 PM EDT
Civil Twilight 5:44 AM EDT 8:53 PM EDT
Nautical Twilight 5:07 AM EDT 9:30 PM EDT
Astronomical Twilight 4:26 AM EDT 10:11 PM EDT
Moon 11:33 AM EDT (5/5) 1:05 AM EDT (5/5)
Length of Visible Light 15h 08m
Length of Day
14h 08m
Waxing Crescent, 36% of the Moon is Illuminated
May 5
Waxing Crescent
May 6
First Quarter
May 14
Full
May 21
Last Quarter
May 28
New

Hourly Weather History & Observations

Time (EDT) Temp. Dew Point Humidity Pressure Visibility Wind Dir Wind Speed Gust Speed Precip Events Conditions
12:56 AM 38.8 °F 32.9 °F 79% 30.16 in 10.0 mi Calm Calm - N/A   Clear
1:56 AM 37.4 °F 33.8 °F 87% 30.08 in 10.0 mi Calm Calm - N/A   Clear
2:56 AM 36.0 °F 32.9 °F 89% 30.14 in 10.0 mi Calm Calm - N/A   Clear
3:56 AM 34.0 °F 32.0 °F 92% 30.12 in 10.0 mi Calm Calm - N/A   Clear
4:56 AM 33.8 °F 32.0 °F 93% 30.05 in 10.0 mi Calm Calm - N/A   Clear
5:56 AM 32.9 °F 32.0 °F 96% 30.12 in 10.0 mi Calm Calm - N/A   Clear
6:56 AM 32.9 °F 32.0 °F 96% 30.14 in 10.0 mi Calm Calm - N/A   Clear
7:56 AM 39.2 °F 35.6 °F 87% 30.10 in 10.0 mi Calm Calm - N/A   Clear
8:56 AM 43.0 °F 36.0 °F 76% 30.15 in 10.0 mi Calm Calm - N/A   Clear
9:56 AM 47.8 °F 36.0 °F 63% 30.14 in 10.0 mi Calm Calm - N/A   Partly Cloudy
10:56 AM 52.9 °F 34.0 °F 49% 30.11 in 10.0 mi ESE 3.5 mph - N/A   Partly Cloudy
11:56 AM 55.9 °F 32.0 °F 40% 30.10 in 10.0 mi East 6.9 mph - N/A   Scattered Clouds
12:56 PM 56.8 °F 32.9 °F 40% 30.10 in 10.0 mi Calm Calm - N/A   Scattered Clouds
1:56 PM 57.2 °F 32.0 °F 38% 30.02 in 10.0 mi Calm Calm - N/A   Scattered Clouds
2:56 PM 56.8 °F 31.1 °F 38% 30.05 in 10.0 mi NNE 8.1 mph - N/A   Partly Cloudy
3:56 PM 55.9 °F 32.9 °F 42% 30.06 in 10.0 mi NNE 9.2 mph - N/A   Mostly Cloudy
4:56 PM 50.0 °F 37.9 °F 63% 30.05 in 6.0 mi NE 9.2 mph - 0.00 in Rain Light Rain
5:56 PM 50.9 °F 39.9 °F 66% 30.03 in 10.0 mi NNE 5.8 mph - 0.00 in   Scattered Clouds
6:56 PM 52.0 °F 41.0 °F 66% 30.01 in 10.0 mi Calm Calm - 0.00 in   Mostly Cloudy
7:56 PM 50.9 °F 39.9 °F 66% 30.01 in 10.0 mi Calm Calm - N/A   Mostly Cloudy
8:56 PM 50.9 °F 39.9 °F 66% 29.99 in 10.0 mi Calm Calm - N/A   Mostly Cloudy
9:56 PM 50.0 °F 38.8 °F 66% 30.01 in 10.0 mi Calm Calm - N/A   Scattered Clouds
10:56 PM 48.2 °F 39.2 °F 71% 29.95 in 10.0 mi Calm Calm - N/A   Mostly Cloudy
11:56 PM 47.8 °F 37.9 °F 69% 30.00 in 10.0 mi Calm Calm - N/A   Mostly Cloudy